Location: Riddle Hill
(39.7867°N, 89.7645°W)
Time: 21:48:51
(UTC+00:00)

YAOGAN 1 - Pass Details

Date: 29 October 2020
Orbit: 618 x 620 km, 97.9° (Epoch: 30 November)

Event Time Altitude Azimuth Distance (km) Brightness Sun altitude
Rises 23:42:17 0° 131° (SE) 2,886 5.6 -8.7°
Reaches altitude 10° 23:44:54 10° 115° (ESE) 1,985 4.7 -9.2°
Maximum altitude 23:48:05 21° 67° (ENE) 1,424 3.8 -9.8°
Drops below altitude 10° 23:51:17 10° 19° (NNE) 1,995 4.9 -10.4°
Sets 23:53:55 0° 3° (N) 2,906 5.9 -10.9°
